TimeCST,TemperatureF,Dew PointF,Humidity,Sea Level PressureIn,VisibilityMPH,Wind Direction,Wind SpeedMPH,Gust SpeedMPH,PrecipitationIn,Events,Conditions,WindDirDegrees,DateUTC
12:15 AM,20.3,11.3,68,30.23,10.0,South,5.8,-,N/A,,Clear,180,2013-01-03 06:15:00
12:35 AM,20.1,11.7,70,30.23,10.0,South,5.8,-,N/A,,Clear,190,2013-01-03 06:35:00
12:55 AM,20.8,12.6,70,30.22,10.0,South,6.9,-,N/A,,Clear,180,2013-01-03 06:55:00
1:15 AM,21.4,13.8,73,30.21,10.0,South,8.1,-,N/A,,Clear,190,2013-01-03 07:15:00
1:35 AM,22.5,14.4,71,30.22,10.0,SSW,8.1,-,N/A,,Clear,200,2013-01-03 07:35:00
1:55 AM,21.2,14.0,74,30.23,10.0,South,8.1,-,N/A,,Clear,190,2013-01-03 07:55:00
2:15 AM,21.2,14.2,74,30.23,10.0,South,8.1,-,N/A,,Clear,190,2013-01-03 08:15:00
2:35 AM,21.6,14.4,74,30.23,10.0,SSW,4.6,-,N/A,,Clear,210,2013-01-03 08:35:00
2:55 AM,21.0,14.5,76,30.23,10.0,SW,5.8,-,N/A,,Clear,220,2013-01-03 08:55:00
3:15 AM,21.4,14.5,75,30.24,10.0,SW,8.1,-,N/A,,Clear,220,2013-01-03 09:15:00
3:35 AM,19.8,13.6,77,30.24,10.0,SW,8.1,-,N/A,,Clear,230,2013-01-03 09:35:00
3:55 AM,20.1,13.8,77,30.24,10.0,SW,6.9,-,N/A,,Clear,230,2013-01-03 09:55:00
4:15 AM,20.3,14.0,77,30.24,10.0,SW,5.8,-,N/A,,Clear,230,2013-01-03 10:15:00
4:35 AM,18.5,13.1,79,30.24,10.0,West,4.6,-,N/A,,Clear,260,2013-01-03 10:35:00
4:55 AM,19.6,14.0,79,30.24,10.0,WSW,5.8,-,N/A,,Clear,250,2013-01-03 10:55:00
5:15 AM,18.7,13.5,80,30.25,10.0,SW,6.9,-,N/A,,Clear,230,2013-01-03 11:15:00
5:35 AM,18.7,13.3,79,30.26,10.0,WSW,6.9,-,N/A,,Clear,240,2013-01-03 11:35:00
5:55 AM,18.1,13.3,81,30.27,10.0,WSW,5.8,-,N/A,,Clear,240,2013-01-03 11:55:00
6:15 AM,17.2,12.9,83,30.27,10.0,WSW,3.5,-,N/A,,Clear,240,2013-01-03 12:15:00
6:35 AM,17.4,12.9,83,30.28,10.0,WSW,4.6,-,N/A,,Clear,250,2013-01-03 12:35:00
6:55 AM,18.1,13.3,81,30.29,10.0,WSW,5.8,-,N/A,,Clear,250,2013-01-03 12:55:00
7:15 AM,17.6,14.0,86,30.28,10.0,WSW,5.8,-,N/A,,Clear,240,2013-01-03 13:15:00
7:35 AM,17.6,13.5,84,30.30,10.0,WSW,5.8,-,N/A,,Clear,240,2013-01-03 13:35:00
7:55 AM,18.9,14.7,84,30.30,10.0,WSW,6.9,-,N/A,,Unknown,250,2013-01-03 13:55:00
8:15 AM,19.8,15.1,82,30.30,10.0,WSW,5.8,-,N/A,,Unknown,240,2013-01-03 14:15:00
8:35 AM,22.1,16.9,80,30.30,10.0,WSW,6.9,-,N/A,,Unknown,250,2013-01-03 14:35:00
8:55 AM,23.7,18.1,79,30.32,10.0,WSW,6.9,-,N/A,,Clear,240,2013-01-03 14:55:00
9:15 AM,25.0,19.2,79,30.33,10.0,WSW,8.1,-,N/A,,Clear,250,2013-01-03 15:15:00
9:35 AM,26.6,20.3,77,30.33,10.0,WSW,8.1,-,N/A,,Clear,250,2013-01-03 15:35:00
9:55 AM,27.9,21.4,77,30.34,10.0,WSW,8.1,-,N/A,,Clear,240,2013-01-03 15:55:00
10:15 AM,28.4,21.7,76,30.35,10.0,WSW,9.2,-,N/A,,Clear,240,2013-01-03 16:15:00
10:35 AM,28.9,22.3,76,30.35,7.0,WSW,9.2,-,N/A,,Clear,250,2013-01-03 16:35:00
10:55 AM,29.8,22.8,75,30.35,7.0,WSW,6.9,-,N/A,,Clear,250,2013-01-03 16:55:00
11:15 AM,30.9,23.5,74,30.34,10.0,SW,5.8,-,N/A,,Clear,230,2013-01-03 17:15:00
11:35 AM,31.1,23.7,74,30.33,7.0,WSW,6.9,-,N/A,,Clear,240,2013-01-03 17:35:00
11:55 AM,32.0,24.8,75,30.33,7.0,WSW,5.8,-,N/A,,Clear,240,2013-01-03 17:55:00
12:15 PM,32.5,25.3,75,30.33,10.0,West,6.9,-,N/A,,Clear,260,2013-01-03 18:15:00
12:35 PM,33.1,25.3,73,30.31,10.0,WSW,5.8,-,N/A,,Clear,250,2013-01-03 18:35:00
12:55 PM,33.4,25.3,72,30.31,10.0,WSW,5.8,-,N/A,,Clear,240,2013-01-03 18:55:00
1:15 PM,33.8,25.7,72,30.31,10.0,SW,5.8,-,N/A,,Clear,220,2013-01-03 19:15:00
1:35 PM,34.7,25.7,70,30.31,10.0,WSW,5.8,-,N/A,,Clear,240,2013-01-03 19:35:00
1:55 PM,35.1,25.9,69,30.31,10.0,WSW,6.9,-,N/A,,Clear,240,2013-01-03 19:55:00
2:15 PM,34.7,26.4,72,30.32,10.0,SW,6.9,-,N/A,,Clear,220,2013-01-03 20:15:00
2:35 PM,34.9,26.4,71,30.32,10.0,SW,8.1,-,N/A,,Clear,220,2013-01-03 20:35:00
2:55 PM,34.7,26.1,71,30.33,10.0,SW,8.1,-,N/A,,Clear,220,2013-01-03 20:55:00
3:15 PM,34.3,26.1,72,30.33,10.0,SW,8.1,-,N/A,,Clear,220,2013-01-03 21:15:00
3:35 PM,34.2,25.9,72,30.33,10.0,SW,8.1,-,N/A,,Clear,220,2013-01-03 21:35:00
3:55 PM,34.0,25.0,70,30.33,10.0,SW,9.2,-,N/A,,Clear,220,2013-01-03 21:55:00
4:15 PM,33.3,24.6,71,30.34,10.0,WSW,5.8,-,N/A,,Clear,250,2013-01-03 22:15:00
4:35 PM,32.0,24.1,73,30.34,10.0,SW,5.8,-,N/A,,Clear,230,2013-01-03 22:35:00
5:15 PM,30.9,23.5,74,30.35,10.0,WSW,4.6,-,N/A,,Unknown,250,2013-01-03 23:15:00
5:35 PM,30.9,23.9,75,30.35,10.0,SW,4.6,-,N/A,,Mostly Cloudy,220,2013-01-03 23:35:00
5:55 PM,31.6,24.8,76,30.36,10.0,SW,5.8,-,N/A,,Overcast,220,2013-01-03 23:55:00
6:15 PM,31.6,24.8,76,30.36,10.0,SW,5.8,-,N/A,,Overcast,230,2013-01-04 00:15:00
6:35 PM,30.4,23.9,77,30.36,10.0,WSW,5.8,-,N/A,,Scattered Clouds,240,2013-01-04 00:35:00
6:55 PM,30.0,23.5,77,30.37,10.0,WSW,5.8,-,N/A,,Scattered Clouds,250,2013-01-04 00:55:00
7:15 PM,29.3,23.9,80,30.37,10.0,WSW,4.6,-,N/A,,Mostly Cloudy,250,2013-01-04 01:15:00
7:35 PM,30.6,24.6,79,30.37,10.0,WSW,5.8,-,N/A,,Overcast,240,2013-01-04 01:35:00
7:55 PM,30.4,24.4,79,30.37,10.0,West,4.6,-,N/A,,Overcast,260,2013-01-04 01:55:00
8:15 PM,30.6,24.3,77,30.37,10.0,WSW,3.5,-,N/A,,Overcast,250,2013-01-04 02:15:00
8:35 PM,31.6,24.3,74,30.38,10.0,WSW,4.6,-,N/A,,Overcast,250,2013-01-04 02:35:00
8:55 PM,32.0,24.6,74,30.38,10.0,West,5.8,-,N/A,,Overcast,260,2013-01-04 02:55:00
9:15 PM,31.3,24.4,76,30.38,10.0,West,4.6,-,N/A,,Overcast,260,2013-01-04 03:15:00
9:35 PM,31.3,24.8,77,30.39,10.0,WSW,5.8,-,N/A,,Overcast,240,2013-01-04 03:35:00
9:55 PM,30.7,24.6,78,30.39,10.0,West,4.6,-,N/A,,Overcast,260,2013-01-04 03:55:00
10:15 PM,30.6,24.8,79,30.39,10.0,SW,4.6,-,N/A,,Overcast,230,2013-01-04 04:15:00
10:35 PM,30.9,25.2,79,30.39,10.0,WSW,4.6,-,N/A,,Overcast,240,2013-01-04 04:35:00
10:55 PM,30.9,24.3,76,30.39,10.0,SW,4.6,-,N/A,,Overcast,230,2013-01-04 04:55:00
11:15 PM,30.6,23.9,76,30.38,10.0,SW,4.6,-,N/A,,Overcast,230,2013-01-04 05:15:00
11:35 PM,30.4,23.9,77,30.38,10.0,SW,5.8,-,N/A,,Overcast,230,2013-01-04 05:35:00
11:55 PM,30.9,24.3,76,30.38,10.0,SW,5.8,-,N/A,,Overcast,230,2013-01-04 05:55:00